VLG3141 GCRR-LEMG

Flight info

Callsign VLG3141
Flight time 1h 47m
Altitude 36000
Route KORAL UG5 SONSO DCT ADUBI DCT VJF
Aircraft A320/M-SDE3FGHIRWY/LB1

Departure

Time 2026-04-30 19:23
Airport César Manrique-Lanzarote Airport (GCRR)

Arrival

Time 2026-04-30 21:11
Airport Málaga-Costa del Sol Airport (LEMG)
Time Latitude Longitude Altitude Speed Heading
2026-04-30 18:58 28.95091 -13.60713 33 ft 0 kts 297°
2026-04-30 19:13 28.95088 -13.60707 47 ft 2 kts 295°
2026-04-30 19:13 28.95081 -13.60690 44 ft 2 kts 295°
2026-04-30 19:14 28.95074 -13.60673 44 ft 2 kts 293°
2026-04-30 19:14 28.95068 -13.60655 45 ft 2 kts 290°
2026-04-30 19:14 28.95063 -13.60638 45 ft 2 kts 283°
2026-04-30 19:14 28.95060 -13.60619 45 ft 2 kts 265°
2026-04-30 19:15 28.95064 -13.60601 45 ft 2 kts 226°
2026-04-30 19:15 28.95070 -13.60594 44 ft 0 kts 220°
2026-04-30 19:16 28.95070 -13.60595 41 ft 1 kts 220°
2026-04-30 19:17 28.95064 -13.60600 45 ft 1 kts 220°
2026-04-30 19:17 28.94969 -13.60663 45 ft 12 kts 205°
2026-04-30 19:17 28.94900 -13.60656 44 ft 11 kts 122°
2026-04-30 19:18 28.94800 -13.60587 44 ft 15 kts 207°
2026-04-30 19:18 28.94677 -13.60656 43 ft 14 kts 207°
2026-04-30 19:18 28.94592 -13.60706 41 ft 14 kts 207°
2026-04-30 19:19 28.94507 -13.60755 40 ft 15 kts 206°
2026-04-30 19:19 28.94407 -13.60811 38 ft 16 kts 206°
2026-04-30 19:19 28.94225 -13.60916 36 ft 14 kts 207°
2026-04-30 19:20 28.94142 -13.60966 35 ft 14 kts 207°
2026-04-30 19:20 28.94042 -13.61024 32 ft 16 kts 207°
2026-04-30 19:20 28.93851 -13.61133 31 ft 15 kts 206°
2026-04-30 19:21 28.93763 -13.61183 29 ft 14 kts 208°
2026-04-30 19:21 28.93623 -13.61152 27 ft 13 kts 116°
2026-04-30 19:22 28.93645 -13.61044 29 ft 0 kts 27°
2026-04-30 19:22 28.94476 -13.60565 41 ft 130 kts 27°
2026-04-30 19:23 28.97094 -13.58716 1426 ft 150 kts 34°
2026-04-30 19:24 28.99005 -13.57073 1697 ft 193 kts 36°
2026-04-30 19:24 29.00152 -13.56093 1904 ft 219 kts 36°
2026-04-30 19:24 29.02491 -13.53368 2935 ft 256 kts 49°
2026-04-30 19:25 29.05891 -13.48371 5330 ft 272 kts 50°
2026-04-30 19:26 29.08290 -13.44946 6876 ft 281 kts 49°
2026-04-30 19:26 29.11281 -13.42100 8296 ft 287 kts 22°
2026-04-30 19:26 29.13111 -13.41137 9032 ft 292 kts 22°
2026-04-30 19:27 29.16870 -13.39156 10441 ft 303 kts 22°
2026-04-30 19:27 29.20953 -13.36988 10908 ft 347 kts 22°
2026-04-30 19:28 29.23196 -13.35791 11251 ft 362 kts 23°
2026-04-30 19:28 29.27534 -13.32711 12486 ft 376 kts 42°
2026-04-30 19:29 29.30759 -13.27893 13768 ft 386 kts 53°
2026-04-30 19:29 29.32303 -13.25353 14329 ft 390 kts 53°
2026-04-30 19:30 29.37027 -13.17576 15976 ft 402 kts 53°
2026-04-30 19:30 29.40235 -13.12316 17071 ft 409 kts 53°
2026-04-30 19:31 29.43523 -13.06913 18158 ft 417 kts 53°
2026-04-30 19:31 29.45188 -13.04172 18667 ft 421 kts 52°
2026-04-30 19:31 29.48553 -12.98611 19609 ft 428 kts 52°
2026-04-30 19:32 29.50261 -12.95796 20081 ft 432 kts 52°
2026-04-30 19:32 29.51984 -12.92954 20565 ft 435 kts 52°
2026-04-30 19:32 29.53722 -12.90087 21019 ft 439 kts 52°
2026-04-30 19:32 29.55468 -12.87199 21459 ft 443 kts 52°
2026-04-30 19:33 29.57231 -12.84280 21903 ft 446 kts 52°
2026-04-30 19:33 29.59008 -12.81338 22334 ft 450 kts 52°
2026-04-30 19:33 29.60798 -12.78374 22757 ft 453 kts 52°
2026-04-30 19:33 29.62602 -12.75384 23169 ft 457 kts 52°
2026-04-30 19:34 29.64416 -12.72372 23569 ft 460 kts 51°
2026-04-30 19:34 29.66242 -12.69336 23925 ft 463 kts 51°
2026-04-30 19:34 29.69930 -12.63200 24582 ft 469 kts 51°
2026-04-30 19:35 29.71785 -12.60108 24902 ft 471 kts 51°
2026-04-30 19:35 29.73652 -12.56994 25211 ft 474 kts 51°
2026-04-30 19:35 29.75521 -12.53862 25527 ft 476 kts 51°
2026-04-30 19:35 29.77395 -12.50702 25837 ft 479 kts 52°
2026-04-30 19:36 29.79271 -12.47523 26135 ft 481 kts 52°
2026-04-30 19:36 29.81154 -12.44328 26434 ft 484 kts 52°
2026-04-30 19:36 29.84925 -12.37932 27012 ft 488 kts 51°
2026-04-30 19:37 29.86840 -12.34686 27302 ft 490 kts 51°
2026-04-30 19:37 29.88762 -12.31425 27585 ft 492 kts 51°
2026-04-30 19:37 29.90687 -12.28156 27858 ft 495 kts 51°
2026-04-30 19:37 29.92622 -12.24868 28130 ft 497 kts 51°
2026-04-30 19:38 29.94565 -12.21563 28389 ft 499 kts 51°
2026-04-30 19:38 29.96511 -12.18246 28642 ft 501 kts 51°
2026-04-30 19:38 29.98467 -12.14916 28889 ft 502 kts 51°
2026-04-30 19:38 30.00515 -12.11656 29110 ft 500 kts 45°
2026-04-30 19:39 30.02894 -12.08755 29351 ft 495 kts 36°
2026-04-30 19:39 30.05546 -12.06243 29574 ft 493 kts 32°
2026-04-30 19:39 30.08243 -12.03795 29910 ft 492 kts 32°
2026-04-30 19:39 30.10927 -12.01352 30240 ft 491 kts 32°
2026-04-30 19:40 30.13609 -11.98908 30530 ft 491 kts 32°
2026-04-30 19:40 30.16284 -11.96465 30827 ft 489 kts 32°
2026-04-30 19:40 30.18947 -11.94027 31131 ft 488 kts 32°
2026-04-30 19:40 30.21603 -11.91588 31438 ft 487 kts 32°
2026-04-30 19:41 30.24250 -11.89157 31753 ft 485 kts 32°
2026-04-30 19:41 30.26887 -11.86735 32068 ft 483 kts 32°
2026-04-30 19:41 30.29518 -11.84323 32380 ft 482 kts 32°
2026-04-30 19:41 30.32147 -11.81918 32689 ft 480 kts 32°
2026-04-30 19:42 30.34762 -11.79522 32999 ft 479 kts 32°
2026-04-30 19:42 30.37370 -11.77130 33311 ft 477 kts 32°
2026-04-30 19:42 30.39965 -11.74745 33621 ft 476 kts 32°
2026-04-30 19:42 30.42516 -11.72392 33923 ft 475 kts 32°
2026-04-30 19:43 30.45093 -11.70006 34216 ft 473 kts 32°
2026-04-30 19:43 30.47662 -11.67626 34476 ft 472 kts 32°
2026-04-30 19:43 30.50228 -11.65253 34713 ft 471 kts 32°
2026-04-30 19:44 30.55357 -11.60530 35158 ft 470 kts 32°
2026-04-30 19:44 30.57916 -11.58171 35373 ft 470 kts 32°
2026-04-30 19:44 30.60472 -11.55808 35580 ft 469 kts 32°
2026-04-30 19:44 30.63024 -11.53444 35781 ft 469 kts 32°
2026-04-30 19:45 30.65572 -11.51079 35977 ft 469 kts 32°
2026-04-30 19:45 30.68114 -11.48717 36120 ft 469 kts 32°
2026-04-30 19:45 30.70670 -11.46344 36152 ft 470 kts 31°
2026-04-30 19:46 30.75789 -11.41597 36151 ft 471 kts 31°
2026-04-30 19:46 30.80903 -11.36845 36149 ft 470 kts 31°
2026-04-30 19:47 30.86014 -11.32093 36151 ft 470 kts 31°
2026-04-30 19:47 30.91120 -11.27339 36148 ft 470 kts 31°
2026-04-30 19:48 30.96225 -11.22571 36154 ft 470 kts 32°
2026-04-30 19:48 31.01286 -11.17817 36161 ft 470 kts 32°
2026-04-30 19:49 31.06378 -11.13032 36164 ft 470 kts 31°
2026-04-30 19:49 31.14026 -11.05879 36166 ft 470 kts 31°
2026-04-30 19:50 31.19122 -11.01096 36165 ft 470 kts 31°
2026-04-30 19:50 31.24210 -10.96308 36164 ft 470 kts 31°
2026-04-30 19:51 31.29294 -10.91513 36168 ft 469 kts 31°
2026-04-30 19:51 31.34371 -10.86723 36167 ft 469 kts 31°
2026-04-30 19:52 31.39449 -10.81924 36164 ft 469 kts 31°
2026-04-30 19:52 31.44517 -10.77117 36164 ft 469 kts 32°
2026-04-30 19:53 31.49588 -10.72311 36165 ft 469 kts 31°
2026-04-30 19:53 31.54624 -10.67530 36167 ft 469 kts 31°
2026-04-30 19:54 31.59691 -10.62718 36169 ft 469 kts 31°
2026-04-30 19:54 31.64760 -10.57903 36171 ft 469 kts 31°
2026-04-30 19:55 31.69823 -10.53074 36170 ft 469 kts 32°
2026-04-30 19:55 31.74875 -10.48234 36169 ft 469 kts 32°
2026-04-30 19:56 31.79932 -10.43399 36171 ft 468 kts 31°
2026-04-30 19:56 31.84984 -10.38567 36171 ft 468 kts 31°
2026-04-30 19:57 31.90030 -10.33723 36174 ft 468 kts 31°
2026-04-30 19:57 31.95070 -10.28874 36170 ft 468 kts 31°
2026-04-30 19:58 32.00110 -10.24032 36163 ft 467 kts 31°
2026-04-30 19:58 32.05116 -10.19220 36164 ft 468 kts 31°
2026-04-30 19:59 32.10149 -10.14357 36162 ft 468 kts 31°
2026-04-30 20:00 32.17704 -10.07062 36158 ft 468 kts 31°
2026-04-30 20:00 32.22736 -10.02195 36160 ft 468 kts 31°
2026-04-30 20:01 32.30277 -9.94872 36160 ft 468 kts 31°
2026-04-30 20:01 32.35303 -9.89985 36159 ft 468 kts 31°
2026-04-30 20:02 32.42838 -9.82650 36157 ft 468 kts 31°
2026-04-30 20:03 32.50370 -9.75305 36166 ft 467 kts 31°
2026-04-30 20:03 32.55381 -9.70399 36159 ft 467 kts 31°
2026-04-30 20:04 32.60392 -9.65490 36165 ft 467 kts 32°
2026-04-30 20:05 32.67863 -9.58163 36163 ft 467 kts 32°
2026-04-30 20:05 32.75363 -9.50798 36166 ft 466 kts 32°
2026-04-30 20:06 32.80343 -9.45882 36162 ft 465 kts 32°
2026-04-30 20:06 32.85327 -9.40966 36157 ft 465 kts 32°
2026-04-30 20:07 32.90305 -9.36056 36157 ft 465 kts 32°
2026-04-30 20:08 32.97765 -9.28679 36162 ft 465 kts 32°
2026-04-30 20:08 33.02732 -9.23752 36164 ft 464 kts 32°
2026-04-30 20:09 33.07691 -9.18824 36162 ft 464 kts 32°
2026-04-30 20:09 33.15126 -9.11422 36165 ft 464 kts 32°
2026-04-30 20:10 33.22530 -9.04052 36172 ft 464 kts 32°
2026-04-30 20:11 33.29958 -8.96614 36162 ft 464 kts 32°
2026-04-30 20:11 33.34903 -8.91646 36155 ft 464 kts 32°
2026-04-30 20:12 33.41500 -8.85042 36157 ft 464 kts 32°
2026-04-30 20:13 33.46450 -8.80081 36160 ft 464 kts 32°
2026-04-30 20:13 33.51400 -8.75096 36162 ft 465 kts 33°
2026-04-30 20:14 33.56345 -8.70103 36163 ft 465 kts 33°
2026-04-30 20:14 33.61298 -8.65109 36163 ft 465 kts 33°
2026-04-30 20:15 33.66253 -8.60109 36163 ft 466 kts 33°
2026-04-30 20:15 33.71200 -8.55084 36161 ft 466 kts 33°
2026-04-30 20:16 33.76153 -8.50053 36165 ft 466 kts 33°
2026-04-30 20:16 33.81072 -8.45053 36167 ft 466 kts 33°
2026-04-30 20:17 33.86025 -8.40013 36169 ft 466 kts 33°
2026-04-30 20:17 33.90983 -8.34963 36169 ft 467 kts 33°
2026-04-30 20:18 33.95933 -8.29905 36171 ft 467 kts 34°
2026-04-30 20:18 34.00884 -8.24845 36172 ft 467 kts 34°
2026-04-30 20:19 34.05830 -8.19771 36171 ft 467 kts 34°
2026-04-30 20:19 34.10778 -8.14692 36172 ft 467 kts 34°
2026-04-30 20:20 34.15727 -8.09616 36172 ft 467 kts 34°
2026-04-30 20:20 34.20678 -8.04537 36173 ft 467 kts 34°
2026-04-30 20:21 34.25617 -7.99440 36174 ft 467 kts 34°
2026-04-30 20:21 34.30549 -7.94335 36174 ft 467 kts 34°
2026-04-30 20:22 34.35452 -7.89263 36176 ft 467 kts 34°
2026-04-30 20:22 34.40384 -7.84163 36178 ft 466 kts 34°
2026-04-30 20:23 34.45314 -7.79060 36179 ft 466 kts 34°
2026-04-30 20:23 34.50238 -7.73946 36178 ft 466 kts 34°
2026-04-30 20:24 34.55150 -7.68816 36176 ft 466 kts 34°
2026-04-30 20:24 34.60064 -7.63688 36174 ft 466 kts 34°
2026-04-30 20:25 34.67437 -7.56004 36180 ft 465 kts 34°
2026-04-30 20:26 34.74795 -7.48303 36181 ft 465 kts 35°
2026-04-30 20:26 34.82138 -7.40595 36179 ft 465 kts 35°
2026-04-30 20:27 34.91912 -7.30291 36172 ft 464 kts 35°
2026-04-30 20:28 35.01641 -7.20024 36173 ft 464 kts 35°
2026-04-30 20:30 35.13808 -7.07127 36175 ft 463 kts 35°
2026-04-30 20:31 35.28375 -6.91622 36167 ft 463 kts 35°
2026-04-30 20:32 35.40485 -6.78663 36162 ft 462 kts 36°
2026-04-30 20:33 35.47716 -6.70904 36157 ft 462 kts 36°
2026-04-30 20:34 35.54979 -6.63097 36148 ft 463 kts 36°
2026-04-30 20:35 35.62240 -6.55250 36145 ft 464 kts 36°
2026-04-30 20:35 35.69513 -6.47396 36140 ft 464 kts 37°
2026-04-30 20:36 35.74371 -6.42143 36137 ft 465 kts 37°
2026-04-30 20:37 35.81653 -6.34223 36132 ft 466 kts 37°
2026-04-30 20:37 35.86789 -6.29440 36134 ft 462 kts 30°
2026-04-30 20:38 35.92090 -6.24924 36128 ft 463 kts 31°
2026-04-30 20:38 35.97358 -6.20419 36131 ft 464 kts 31°
2026-04-30 20:39 36.05336 -6.13582 36126 ft 466 kts 31°
2026-04-30 20:40 36.13328 -6.06702 36120 ft 468 kts 32°
2026-04-30 20:40 36.16004 -6.04397 35945 ft 469 kts 32°
2026-04-30 20:40 36.18685 -6.02087 35695 ft 470 kts 32°
2026-04-30 20:41 36.23735 -5.96809 33972 ft 483 kts 48°
2026-04-30 20:41 36.25803 -5.93518 32977 ft 486 kts 57°
2026-04-30 20:41 36.27564 -5.89930 32008 ft 488 kts 60°
2026-04-30 20:41 36.29299 -5.86299 31036 ft 491 kts 60°
2026-04-30 20:42 36.31038 -5.82670 30394 ft 486 kts 60°
2026-04-30 20:42 36.32758 -5.79082 29686 ft 482 kts 60°
2026-04-30 20:42 36.36129 -5.72014 28424 ft 471 kts 60°
2026-04-30 20:43 36.37780 -5.68531 27801 ft 466 kts 60°
2026-04-30 20:43 36.39415 -5.65081 27193 ft 461 kts 60°
2026-04-30 20:43 36.41031 -5.61665 26583 ft 457 kts 60°
2026-04-30 20:44 36.44228 -5.54900 25383 ft 451 kts 60°
2026-04-30 20:44 36.45806 -5.51553 24788 ft 447 kts 60°
2026-04-30 20:44 36.48692 -5.44840 23644 ft 440 kts 70°
2026-04-30 20:45 36.49739 -5.37503 22682 ft 425 kts 92°
2026-04-30 20:45 36.49484 -5.33883 22309 ft 418 kts 101°
2026-04-30 20:45 36.49031 -5.30328 21941 ft 415 kts 100°
2026-04-30 20:46 36.47696 -5.19951 20912 ft 396 kts 100°
2026-04-30 20:46 36.47263 -5.16593 20571 ft 393 kts 100°
2026-04-30 20:47 36.46400 -5.09933 19896 ft 388 kts 100°
2026-04-30 20:47 36.45969 -5.06637 19557 ft 386 kts 100°
2026-04-30 20:48 36.45113 -5.00092 18890 ft 382 kts 99°
2026-04-30 20:48 36.44686 -4.96851 18566 ft 379 kts 99°
2026-04-30 20:48 36.44261 -4.93624 18214 ft 377 kts 99°
2026-04-30 20:48 36.43838 -4.90418 17878 ft 375 kts 100°
2026-04-30 20:49 36.43417 -4.87232 17552 ft 373 kts 100°
2026-04-30 20:49 36.43051 -4.84051 17231 ft 372 kts 94°
2026-04-30 20:49 36.43203 -4.80860 16911 ft 370 kts 79°
2026-04-30 20:50 36.45306 -4.75125 16255 ft 367 kts 51°
2026-04-30 20:50 36.47060 -4.72906 15947 ft 363 kts 41°
2026-04-30 20:50 36.48905 -4.70842 15817 ft 351 kts 41°
2026-04-30 20:50 36.50772 -4.68962 15691 ft 340 kts 31°
2026-04-30 20:51 36.52863 -4.67701 15532 ft 331 kts 17°
2026-04-30 20:51 36.57347 -4.67066 14909 ft 323 kts 359°
2026-04-30 20:51 36.59585 -4.67040 14619 ft 321 kts 359°
2026-04-30 20:52 36.61799 -4.67201 14328 ft 318 kts 348°
2026-04-30 20:52 36.63896 -4.68002 14001 ft 314 kts 333°
2026-04-30 20:52 36.67335 -4.71194 13401 ft 308 kts 315°
2026-04-30 20:53 36.68912 -4.72991 13128 ft 307 kts 316°
2026-04-30 20:53 36.70481 -4.74768 12858 ft 305 kts 316°
2026-04-30 20:53 36.72050 -4.76542 12589 ft 304 kts 316°
2026-04-30 20:54 36.75160 -4.80070 12060 ft 301 kts 316°
2026-04-30 20:54 36.76703 -4.81824 11812 ft 298 kts 316°
2026-04-30 20:54 36.78207 -4.83536 11687 ft 288 kts 316°
2026-04-30 20:55 36.81373 -4.86258 11428 ft 272 kts 340°
2026-04-30 20:55 36.83156 -4.86894 11221 ft 268 kts 343°
2026-04-30 20:55 36.84944 -4.87505 11011 ft 265 kts 343°
2026-04-30 20:56 36.88487 -4.88725 10586 ft 263 kts 343°
2026-04-30 20:56 36.90246 -4.89334 10386 ft 262 kts 343°
2026-04-30 20:56 36.93780 -4.90342 9971 ft 260 kts 357°
2026-04-30 20:57 36.95593 -4.90362 9871 ft 261 kts 359°
2026-04-30 20:57 36.97408 -4.90384 9758 ft 261 kts 358°
2026-04-30 20:57 36.99212 -4.90410 9644 ft 255 kts 359°
2026-04-30 20:58 37.02681 -4.90456 9132 ft 247 kts 359°
2026-04-30 20:58 37.04391 -4.90480 8794 ft 245 kts 359°
2026-04-30 20:58 37.06092 -4.90503 8457 ft 244 kts 359°
2026-04-30 20:58 37.07786 -4.90525 8118 ft 243 kts 359°
2026-04-30 20:59 37.11138 -4.90376 7444 ft 240 kts 17°
2026-04-30 20:59 37.12571 -4.89384 7212 ft 233 kts 44°
2026-04-30 21:00 37.13749 -4.85837 7018 ft 224 kts 96°
2026-04-30 21:00 37.12352 -4.82515 7029 ft 220 kts 145°
2026-04-30 21:01 37.09513 -4.81165 7026 ft 220 kts 165°
2026-04-30 21:01 37.08041 -4.80630 7027 ft 220 kts 165°
2026-04-30 21:01 37.05054 -4.80065 6880 ft 220 kts 180°
2026-04-30 21:02 37.03526 -4.80058 6763 ft 219 kts 180°
2026-04-30 21:02 37.02006 -4.80041 6637 ft 219 kts 179°
2026-04-30 21:02 37.00484 -4.80022 6518 ft 218 kts 179°
2026-04-30 21:02 36.98965 -4.80005 6395 ft 218 kts 179°
2026-04-30 21:03 36.97451 -4.79989 6265 ft 218 kts 179°
2026-04-30 21:03 36.95934 -4.79972 6116 ft 218 kts 179°
2026-04-30 21:03 36.94419 -4.79954 5939 ft 218 kts 179°
2026-04-30 21:03 36.92915 -4.79789 5761 ft 217 kts 166°
2026-04-30 21:04 36.91483 -4.79190 5584 ft 217 kts 161°
2026-04-30 21:04 36.90058 -4.78565 5408 ft 217 kts 161°
2026-04-30 21:04 36.87215 -4.77324 5092 ft 216 kts 160°
2026-04-30 21:05 36.85867 -4.76498 4960 ft 216 kts 152°
2026-04-30 21:05 36.84549 -4.75608 4666 ft 215 kts 152°
2026-04-30 21:05 36.83230 -4.74718 4371 ft 215 kts 152°
2026-04-30 21:05 36.81917 -4.73835 4078 ft 214 kts 152°
2026-04-30 21:06 36.81047 -4.73250 3891 ft 214 kts 152°
2026-04-30 21:06 36.79736 -4.72370 3601 ft 213 kts 152°
2026-04-30 21:06 36.78434 -4.71491 3337 ft 212 kts 150°
2026-04-30 21:06 36.77344 -4.70331 3201 ft 203 kts 123°
2026-04-30 21:07 36.76664 -4.68844 3122 ft 192 kts 117°
2026-04-30 21:07 36.75862 -4.66912 2747 ft 189 kts 117°
2026-04-30 21:07 36.75454 -4.65931 2569 ft 187 kts 117°
2026-04-30 21:07 36.74858 -4.64505 2419 ft 180 kts 117°
2026-04-30 21:08 36.74295 -4.63159 2218 ft 172 kts 117°
2026-04-30 21:08 36.73749 -4.61856 2010 ft 168 kts 117°
2026-04-30 21:08 36.73209 -4.60566 1795 ft 167 kts 117°
2026-04-30 21:08 36.72674 -4.59288 1577 ft 166 kts 117°
2026-04-30 21:09 36.72165 -4.58074 1384 ft 153 kts 117°
2026-04-30 21:09 36.71677 -4.56911 1173 ft 146 kts 116°
2026-04-30 21:09 36.71210 -4.55797 992 ft 144 kts 116°
2026-04-30 21:09 36.70755 -4.54712 801 ft 143 kts 116°
2026-04-30 21:10 36.70298 -4.53618 613 ft 142 kts 116°
2026-04-30 21:10 36.69848 -4.52527 372 ft 141 kts 116°
2026-04-30 21:10 36.69389 -4.51450 215 ft 141 kts 117°
2026-04-30 21:10 36.68939 -4.50380 49 ft 133 kts 117°
2026-04-30 21:11 36.68580 -4.49527 50 ft 86 kts 118°
2026-04-30 21:11 36.68381 -4.49054 49 ft 37 kts 117°
2026-04-30 21:11 36.68283 -4.48825 47 ft 30 kts 117°
2026-04-30 21:11 36.68169 -4.48620 43 ft 27 kts 134°
2026-04-30 21:12 36.68052 -4.48510 43 ft 22 kts 147°
2026-04-30 21:12 36.67982 -4.48553 43 ft 9 kts 293°
2026-04-30 21:12 36.68019 -4.48640 42 ft 17 kts 297°
2026-04-30 21:12 36.68081 -4.48787 42 ft 21 kts 297°
2026-04-30 21:13 36.68149 -4.48947 44 ft 21 kts 297°
2026-04-30 21:13 36.68216 -4.49108 48 ft 21 kts 297°
2026-04-30 21:13 36.68280 -4.49264 51 ft 18 kts 288°
2026-04-30 21:13 36.68213 -4.49396 47 ft 21 kts 222°
2026-04-30 21:14 36.68101 -4.49520 47 ft 19 kts 221°
2026-04-30 21:14 36.68005 -4.49624 48 ft 19 kts 221°
2026-04-30 21:14 36.67905 -4.49734 50 ft 19 kts 221°
2026-04-30 21:14 36.67813 -4.49804 52 ft 14 kts 168°
2026-04-30 21:15 36.67740 -4.49715 50 ft 16 kts 132°
2026-04-30 21:15 36.67699 -4.49620 50 ft 10 kts 60°
2026-04-30 21:15 36.67733 -4.49577 49 ft 0 kts 41°